Flag for Pakistan Weather past 2 weeks in Peshawar, Pakistan

Now
70 °F

Passing clouds.


Feels Like: 70 °F
Forecast: 64 / 74 °F
Wind: 5 mph from Northwest

Location: Peshawar Airport

Current Time: Mar 28, 2015 at 2:45:40 AM

Latest Report: Mar 28, 2015 at 2:00 AM


Visibility: 2 mi

Pressure: 29.92 "Hg

Humidity: 38%

Dew point: 43 °F

Location of PeshawarLocation

Historic Weather in Peshawar — Graph

°F

Peshawar temperature yesterday

Maximum temperature yesterday: 88 °F (at 3:00 PM)
Minimum temperature yesterday: 61 °F (at 6:00 AM)
Average temperature yesterday: 73 °F

Past Weeks' High & Low Weather Summary

 TemperatureHumidityPressure
High90 °F (Mar 23, 4:00 PM)94% (Mar 16, 2:00 AM)30.21 "Hg (Mar 16, 2:00 AM)
Low52 °F (Mar 18, 6:00 AM)27% (Mar 27, 3:00 PM)29.77 "Hg (Mar 24, 2:00 PM)
Average68 °F60%30.00 "Hg
* Reported Mar 13 1:00 AM — Mar 28 1:00 AM, Peshawar, Weather by CustomWeather, © 2015

Note: Actual official high and low records may vary slightly from our data, if they occured in-between our weather recording intervals... More about our weather records

Advertising

Peshawar weather history for previous 24 hours

 ConditionsComfort  
Time TempWeatherWind HumidityBarometerVisibility
1:00 AM
Sat, Mar 28
72 °FPartly cloudy.5 mph41%29.92 "Hg2 mi
12:00 AM72 °FPassing clouds.5 mph41%29.92 "Hg2 mi
11:00 PM
Fri, Mar 27
73 °FPassing clouds.5 mph41%29.92 "Hg2 mi
10:00 PM73 °FPassing clouds.5 mph47%29.95 "Hg2 mi
9:00 PM75 °FPassing clouds.5 mph44%29.95 "Hg2 mi
8:00 PM75 °FPassing clouds.N/A54%29.95 "Hg2 mi
7:00 PM79 °FPassing clouds.5 mph42%29.95 "Hg2 mi
6:00 PM81 °FBroken clouds.5 mph34%29.95 "Hg2 mi
5:00 PM82 °FBroken clouds.5 mph32%29.95 "Hg3 mi
4:00 PM84 °FScattered clouds.7 mph31%29.95 "Hg3 mi
3:00 PM88 °FPartly sunny.5 mph27%29.98 "Hg3 mi
2:00 PM84 °FPartly sunny.7 mph31%30.01 "Hg3 mi
1:00 PM82 °FPartly sunny.5 mph30%30.04 "Hg3 mi
12:00 PM81 °FPartly sunny.5 mph32%30.07 "Hg3 mi
11:00 AM81 °FPartly sunny.5 mph32%30.07 "Hg2 mi
10:00 AM70 °FBroken clouds.5 mph38%30.09 "Hg2 mi
9:00 AM68 °FPartly sunny.5 mph40%30.09 "Hg2 mi
8:00 AM66 °FScattered clouds.5 mph43%30.09 "Hg2 mi
7:00 AM63 °FScattered clouds.5 mph52%30.07 "Hg2 mi
6:00 AM61 °FPassing clouds.5 mph59%30.04 "Hg2 mi
5:00 AM63 °FPassing clouds.7 mph56%30.04 "Hg2 mi
4:00 AM63 °FHaze.5 mph52%30.04 "Hg2 mi
3:00 AM64 °FPassing clouds.5 mph49%30.04 "Hg2 mi
2:00 AM66 °FPassing clouds.5 mph46%30.04 "Hg2 mi
Weather by CustomWeather, © 2015

See weather overviewHow to use our weather pages